Location: Lansingburgh
(42.7845°N, 73.6696°W)
Time: 04:38:28
(UTC+00:00)

CSL-04 Debris - Pass Details

Date: 24 January 2020
Orbit: 828 x 848 km, 99.0° (Epoch: 19 February)

Event Time Altitude Azimuth Distance (km) Brightness Sun altitude
Rises 23:25:15 0° 162° (SSE) 3,353 7.3 -16.2°
Reaches altitude 10° 23:27:35 10° 162° (SSE) 2,424 6.5 -16.6°
Maximum altitude 23:32:57 86° 74° (ENE) 837 4.1 -17.6°
Drops below altitude 10° 23:38:23 10° 347° (NNW) 2,447 6.6 -18.5°
Sets 23:40:45 0° 347° (NNW) 3,388 7.4 -19.0°
